Location: Nians�bougou
(13.2321°N, 4.9818°W)
Time: 09:12:27
(UTC+00:00)

Cosmos 1727 Rocket - Pass Details

Date: 18 February 2020
Orbit: 962 x 996 km, 82.9° (Epoch: 29 March)

Event Time Altitude Azimuth Distance (km) Brightness Sun altitude
Rises 04:46:39 0° 181° (S) 3,672 7.1 -28.5°
Reaches altitude 10° 04:49:10 10° 180° (S) 2,720 6.4 -27.9°
Maximum altitude 04:55:24 81° 93° (E) 984 4.0 -26.4°
Drops below altitude 10° 05:01:34 10° 7° (N) 2,699 6.3 -24.9°
Sets 05:04:04 0° 6° (N) 3,643 7.0 -24.3°
